星链-5971 (STARLINK-5971 )

导读 | 豆包AI

STARLINK-5971是由美国发射的星链卫星,于2023年6月12日发射入轨,属于SpaceX公司打造的星链星座卫星之一。该卫星主要用于为全球提供低延迟、高速率的宽带互联网服务,尤其能覆盖偏远地区等网络基础设施薄弱区域,助力全球互联网互联互通,是星链大规模组网进程中的一颗在轨卫星。

Basic Information
目录编号:
56917
目录名称:
STARLINK-5971
国际标识:
2023-083AT
轨道中心:
EARTH
卫星名称:
星链-5971
卫星全名:
星链-5971 (STARLINK-5971 )
卫星状态:
在轨 (已飞行1053 天)
发射日期:
2023-06-12 UTC
国别 :
美国 (US)
星等 :
--
Orbit Information
数据来源 国际轨道数据 AOE轨道数据
星历时间 2026-04-29T21:00:01+0800
20小时前
查看轨道信息
2026-04-27T08:00:00+0800
3天前
查看轨道信息
半长轴 6863.705km 6863.668km
偏心率 0.0001521 0.0002371
轨道倾角 43.002° 43.009°
近地点辐角 265.501° 322.872°
升交点赤经 143.635° 157.989°
平近点角 94.567° 91.106°
近地点 484.524km 483.903km
远地点 486.612km 487.159km
周期 94.319分钟 94.318分钟
每日圈数 15.267395 15.267518
Detailed Information
固有亮度:
5
最大亮度:
2.4
卫星平台:
Starlink v1.5
覆盖范围:
全球
运营商:
太空探索技术公司
运营商所在国:
美国
制造商(研发单位):
太空探索技术公司
制造商所在国:
美国
使用方式:
暂无
Satellite Introduction
星链(Starlink)计划是由太空探索技术公司(SpaceX)提出的一个巨型低轨卫星互联网星座项目,计划在2019年至2024年间在太空搭建由约1.2万颗卫星组成的“星链”网络,其中1584颗将部署在地球上空550千米处的近地轨道,并从2020年开始工作。该卫星仍在工作。
2D Orbit Map
3D Orbit Map
Orbit Altitude Analysis Chart
Orbit Inclination Analysis Chart
Orbit Comprehensive Analysis Chart
View Comprehensive Chart